Forks, WA

7:55 PM PST on February 19, 2017 (GMT -0800)
Quillayute

Weather History for KUIL - January, 2012

Change the Weather History Date:

Thursday, January 12, 2012

  Actual Average Record
Temperature  
Mean Temperature 36 °F 42 °F  
Max Temperature 45 °F 47 °F 65 °F (1986)
Min Temperature 26 °F 36 °F 17 °F (2007)
Degree Days  
Heating Degree Days 29 24  
Month to date heating degree days 288  
Since 1 July heating degree days 2766  
Cooling Degree Days 0 0  
Month to date cooling degree days 0  
Year to date cooling degree days 0  
Moisture  
Dew Point 30 °F    
Average Humidity 86    
Maximum Humidity 100    
Minimum Humidity 63    
Precipitation  
Precipitation 0.00 in 0.50 in 2.36 in (2016)
Month to date precipitation 5.77  
Year to date precipitation 5.77  
Sea Level Pressure  
Sea Level Pressure 30.32 in    
Wind  
Wind Speed 1 mph (ENE)    
Max Wind Speed 9 mph    
Max Gust Speed 13 mph    
Visibility 10 miles    
Events      
T = Trace of Precipitation, MM = Missing Value Source: NWS Daily Summary

Daily Weather History Graph

Daily Weather History Graph

Search for Another Location

Airport or City:

Trip Planner

Search our weather history database for the weather conditions in past years. The results will help you decide how hot, cold, wet, or windy it might be!

Date:

Astronomy

Jan. 12, 2012 Rise Set
Actual Time 8:04 AM PST 4:48 PM PST
Civil Twilight 7:29 AM PST 5:23 PM PST
Nautical Twilight 6:50 AM PST 6:02 PM PST
Astronomical Twilight 6:13 AM PST 6:39 PM PST
Moon 9:23 PM PST (1/12) 9:31 AM PST (1/12)
Length of Visible Light 9h 54m
Length of Day
8h 43m
Waning Gibbous, 86% of the Moon is Illuminated
Jan 12
Waning Gibbous
Jan 16
Last Quarter
Jan 22
New
Jan 30
First Quarter
Feb 7
Full

Hourly Weather History & Observations

Time (PST) Temp. Windchill Dew Point Humidity Pressure Visibility Wind Dir Wind Speed Gust Speed Precip Events Conditions
12:53 AM 28.9 °F 25.2 °F 26.1 °F 89% 30.36 in 10.0 mi East 3.5 mph - N/A   Clear
1:53 AM 30.0 °F - 27.0 °F 88% 30.35 in 10.0 mi Calm Calm - N/A   Clear
2:53 AM 28.0 °F 22.8 °F 26.1 °F 92% 30.35 in 10.0 mi East 4.6 mph - N/A   Clear
3:53 AM 30.0 °F 25.2 °F 27.0 °F 88% 30.33 in 10.0 mi East 4.6 mph - N/A   Clear
4:53 AM 28.9 °F - 26.1 °F 89% 30.33 in 10.0 mi Calm Calm - N/A   Clear
5:53 AM 28.9 °F - 26.1 °F 89% 30.32 in 10.0 mi Calm Calm - N/A   Clear
6:53 AM 28.0 °F - 26.1 °F 92% 30.32 in 10.0 mi Calm Calm - N/A   Clear
7:53 AM 28.0 °F - 26.1 °F 92% 30.32 in 10.0 mi Calm Calm - N/A   Clear
8:53 AM 27.0 °F - 26.1 °F 96% 30.33 in 10.0 mi Calm Calm - N/A   Clear
9:53 AM 32.0 °F - 28.9 °F 88% 30.34 in 10.0 mi Calm Calm - N/A   Clear
10:53 AM 35.1 °F - 30.0 °F 82% 30.33 in 10.0 mi Calm Calm - N/A   Clear
11:53 AM 39.9 °F - 32.0 °F 73% 30.32 in 10.0 mi Calm Calm - N/A   Clear
12:53 PM 45.0 °F - 33.1 °F 63% 30.30 in 10.0 mi Calm Calm - N/A   Clear
1:53 PM 44.1 °F - 34.0 °F 68% 30.30 in 10.0 mi Calm Calm - N/A   Clear
2:53 PM 44.1 °F - 35.1 °F 71% 30.31 in 10.0 mi Calm Calm - N/A   Clear
3:53 PM 41.0 °F 38.0 °F 35.1 °F 79% 30.31 in 10.0 mi NW 4.6 mph - N/A   Clear
4:53 PM 39.9 °F 37.8 °F 34.0 °F 79% 30.32 in 10.0 mi North 3.5 mph - N/A   Clear
5:53 PM 36.0 °F - 33.1 °F 89% 30.32 in 10.0 mi Calm Calm - N/A   Clear
6:53 PM 37.9 °F 34.4 °F 33.1 °F 83% 30.29 in 10.0 mi East 4.6 mph - N/A   Scattered Clouds
7:53 PM 34.0 °F - 30.9 °F 89% 30.31 in 10.0 mi Calm Calm - N/A   Clear
8:53 PM 33.1 °F - 30.9 °F 92% 30.31 in 10.0 mi Calm Calm - N/A   Clear
9:53 PM 30.9 °F - 28.9 °F 92% 30.31 in 10.0 mi Calm Calm - N/A   Clear
10:53 PM 30.9 °F - 30.0 °F 96% 30.32 in 10.0 mi Calm Calm - N/A   Clear
11:53 PM 28.9 °F - 28.9 °F 100% 30.31 in 10.0 mi Calm Calm - N/A   Clear